SCP
0 0 0 0 0 0 0 0 0 0 0 0 0 0 0 0 0 0 0 0 0 0 0 0 0 0 0 0 0 0 0 0 0 0 0 0 0 0 0 0 0 0 0 0 0
0 0 0 0 0 0 0 0 0 0 0 0 0 0 0 0 0 0 0 0 0 0 0 0 0 0 0 0 0 0 0 0 0 0 0 0 0 0 0 0 0 0 0 0 0
0 0 0 0 0 0 0 0 0 0 0 0 0 0 0 0 0 0 0 0 0 0 0 0 0 0 0 0 0 0 0 0 0 0 0 0 0 0 0 0 0 0 0 0 0
0 0 0 0 0 0 0 0 0 0 0 0 0 0 0 0 0 0 0 0 0 0 0 0 0 0 0 0 0 0 0 0 0 0 0 0 0 0 0 0 0 0 0 0 0
0 0 0 0 0 0 0 0 0 0 0 0 0 0 0 0 0 0 0 0 0 0 0 0 0 0 0 0 0 0 0 0 0 0 0 0 0 0 0 0 0 0 0 0 0
0 0 0 0 0 0 0 0 0 0 0 0 0 0 0 0 0 0 0 0 0 0 0 0 0 0 0 0 0 0 0 0 0 0 0 0 0 0 0 0 0 0 0 0 0
0 0 0 0 0 0 0 0 0 0 0 0 0 0 0 0 0 0 0 0 0 0 0 0 0 0 0 0 0 0 0 0 0 0 0 0 0 0 0 0 0 0 0 0 0
0 0 0 0 0 0 0 0 0 0 0 0 0 0 0 0 0 0 0 0 0 0 0 0 0 0 0 0 0 0 0 0 0 0 0 0 0 0 0 0 0 0 0 0 0
0 0 0 0 0 0 0 0 0 0 0 0 0 0 0 0 0 0 0 0 0 0 0 0 0 0 0 0 0 0 0 0 0 0 0 0 0 0 0 0 0 0 0 0 0
0 0 0 0 0 0 0 0 0 0 0 0 0 0 0 0 0 0 0 0 0 0 0 0 0 0 0 0 0 0 0 0 0 0 0 0 0 0 0 0 0 0 0 0 0
0 0 0 0 0 0 0 0 0 0 0 0 0 0 0 0 0 0 0 0 0 0 0 0 0 0 0 0 0 0 0 0 0 0 0 0 0 0 0 0 0 0 0 0 0
0 0 0 0 0 0 0 0 0 0 0 0 0 0 0 0 0 0 0 0 0 0 0 0 0 0 0 0 0 0 0 0 0 0 0 0 0 0 0 0 0 0 0 0 0
0 0 0 0 0 0 0 0 0 0 0 0 0 0 0 0 0 0 0 0 0 0 0 0 0 0 0 0 0 0 0 0 0 0 0 0 -0 0 0 0 0 0 0 0 0
0 0 0 0 0 0 0 0 0 0 0 0 0 0 0 0 0 0 0 0 0 0 0 0 0 0 0 0 0 0 0 0 0 0 0 0 -0 -0 0 0 0 0 0 0 0
0 0 0 0 0 0 0 0 0 0 0 0 0 0 0 0 0 0 0 0 0 0 0 0 0 0 0 0 0 0 0 0 0 0 0 0 0 -0 0 0 0 0 0 0 0
0 0 0 0 0 0 0 0 0 0 0 0 0 0 0 0 0 0 0 0 0 0 0 0 0 0 0 0 0 0 0 0 0 0 0 0 0 -0 0 0 0 0 0 0 0
0 0 0 0 0 0 0 0 0 0 0 0 0 0 0 0 0 0 0 0 0 0 0 0 0 0 0 0 0 0 0 0 0 0 0 0 0 0 0 0 0 0 0 0 0
0 0 0 0 0 0 0 0 0 0 0 0 0 0 0 0 0 0 0 0 0 0 0 0 0 0 0 0 0 0 0 0 0 0 0 0 0 0 0 0 0 0 0 0 0
0 0 0 0 0 0 0 0 0 0 0 0 0 0 0 0 0 0 0 0 0 0 0 0 0 0 0 0 0 0 0 0 0 0 0 0 0 0 0 0 0 0 0 0 0
0 0 0 0 0 0 0 0 0 0 0 0 0 0 0 0 0 0 0 0 0 0 0 0 0 0 0 0 0 0 0 0 0 0 0 0 0 0 0 -0 -0 -0 0 0 0
0 0 0 0 0 0 0 0 0 0 0 0 0 0 0 0 0 0 0 0 0 0 0 0 0 0 0 0 0 0 0 0 0 0 0 0 0 0 0 0 0 0 0 0 0
0 0 0 0 0 0 0 0 0 0 0 0 0 0 0 0 0 0 0 0 0 0 0 0 0 0 0 0 0 0 0 0 0 0 0 0 -0 0 0 0 0 0 0 0 0
0 0 0 0 0 0 0 0 0 0 0 0 0 0 0 0 0 0 0 0 0 0 0 0 0 0 0 0 0 0 0 0 0 0 0 0 0 0 0 0 0 0 0 0 0
0 0 0 0 0 0 0 0 0 0 0 0 0 0 0 0 0 0 0 0 0 0 0 0 0 0 0 0 0 0 0 0 0 0 0 0 0 0 0 0 0 0 0 0 0
0 0 0 0 0 0 0 0 0 0 0 0 0 0 0 0 0 0 0 0 0 0 0 0 0 0 0 0 0 0 0 0 0 0 0 0 0 0 0 0 0 0 0 0 0
0 0 0 0 0 0 0 0 0 0 0 0 0 0 0 0 0 0 0 0 0 0 0 0 0 0 0 0 0 0 0 0 0 0 0 0 0 0 0 0 0 0 0 0 0
0 0 0 0 0 0 0 0 0 0 0 0 0 0 0 0 0 0 0 0 0 0 0 0 0 0 0 0 0 0 0 0 0 0 0 0 0 0 0 0 0 0 0 0 0
Wind_Speed_500mb
16 14 13 13 13 13 13 12 11 10 9 9 8 8 8 9 10 11 9 9 9 9 7 7 7 6 7 9 7 6 9 5 12 13 9 15 7 9 12 23 16 20 13 16 49
20 18 16 13 13 12 12 12 11 11 10 9 9 9 10 10 11 10 9 13 13 11 10 8 9 7 6 5 4 8 8 16 10 9 8 13 10 21 13 16 11 18 23 37 52
21 20 18 17 15 13 13 12 12 12 12 11 10 11 10 10 7 5 5 7 10 12 12 9 9 7 5 3 3 6 9 9 6 5 9 13 8 17 15 8 25 36 40 51 54
24 23 21 19 17 16 14 14 13 13 12 12 12 12 11 8 6 7 6 6 10 12 15 14 6 4 5 2 2 3 3 5 4 6 9 10 7 10 26 18 18 26 38 52 56
28 27 26 24 22 20 18 16 15 15 14 13 13 12 11 9 9 13 7 7 11 15 16 8 6 5 7 2 1 2 3 4 5 11 12 10 16 19 25 36 24 29 43 48 53
33 32 30 28 27 24 22 20 19 17 16 15 14 13 11 10 12 17 14 12 11 13 10 7 3 4 6 4 4 3 3 7 10 15 12 10 11 11 19 34 33 35 46 50 52
38 37 35 33 31 29 27 24 23 21 19 17 16 15 19 22 15 19 18 16 15 14 11 9 6 3 4 3 0 1 7 12 17 13 11 14 15 22 34 34 42 45 46 50 51
42 41 40 37 35 33 31 28 26 24 22 20 18 16 15 19 25 27 21 17 14 12 12 10 8 4 4 6 8 5 9 5 7 12 6 15 22 11 27 43 50 52 53 54 55
43 43 42 41 37 35 32 31 30 26 24 21 17 15 14 18 32 30 27 23 20 17 14 10 9 6 7 9 8 10 6 9 16 19 5 8 17 5 12 38 51 57 60 60 58
42 44 43 42 39 35 34 31 29 26 23 17 21 9 24 14 19 28 28 23 17 19 13 11 6 7 6 7 11 11 8 8 12 5 6 10 27 18 20 31 52 55 62 64 65
43 42 42 41 40 36 32 23 17 14 33 22 12 10 4 22 23 22 30 28 20 16 11 7 7 14 26 16 7 8 8 11 8 6 8 17 21 35 37 39 48 57 62 73 78
49 45 41 39 36 38 37 26 16 5 13 41 42 39 17 29 19 27 37 22 16 9 14 7 14 27 8 10 10 6 7 13 12 10 12 21 29 24 21 30 58 77 82 86 82
50 55 50 42 38 44 45 43 16 11 9 15 46 59 41 38 20 45 50 21 9 13 19 17 11 15 17 9 11 12 13 10 16 9 9 13 20 18 19 46 72 78 93 90 95
38 48 59 51 52 58 55 35 19 8 6 12 17 25 46 30 14 33 57 22 9 22 13 13 8 11 11 11 17 12 16 12 11 1 10 4 26 13 15 25 18 72 80 85 84
31 48 57 68 46 63 58 38 29 14 9 8 11 16 32 33 26 21 59 24 17 16 14 16 15 13 10 13 16 14 9 11 2 6 7 3 9 1 7 13 27 50 66 68 71
21 13 16 73 59 62 57 49 44 9 25 9 15 17 15 9 9 13 25 11 11 10 5 9 2 14 17 6 13 15 10 10 8 3 12 21 16 53 12 16 13 32 40 47 53
40 46 40 28 23 29 61 73 11 17 3 13 12 14 8 13 9 11 14 20 17 13 17 5 10 5 9 11 5 6 13 4 7 2 16 6 11 38 18 18 18 22 37 32 36
19 23 34 52 48 33 48 9 13 11 15 6 9 10 15 12 8 11 15 15 12 7 7 16 9 23 14 19 16 15 16 12 14 9 10 4 16 13 17 37 50 47 44 31 35
14 16 27 49 49 56 35 23 11 11 6 15 8 9 8 7 10 8 15 12 18 19 18 13 12 3 4 5 19 11 14 9 7 3 3 10 16 16 18 24 47 24 26 27 32
22 23 34 40 42 39 20 4 12 11 6 5 17 13 22 16 13 15 19 12 13 29 11 10 3 1 4 8 7 13 14 5 2 4 11 10 12 16 15 24 18 12 30 33 29
23 13 5 15 41 23 9 12 12 21 9 8 11 13 11 16 19 14 14 6 13 15 42 10 8 2 8 12 20 7 8 5 8 10 9 6 14 15 12 9 17 18 25 34 36
10 5 7 25 13 5 6 10 14 11 29 13 2 17 23 15 15 17 22 11 30 24 19 10 9 8 15 5 6 2 15 16 8 11 8 4 33 8 14 8 14 25 19 21 33
8 11 11 32 10 16 8 12 9 7 16 16 22 13 6 26 15 24 13 21 45 21 22 18 8 5 4 2 6 13 14 30 10 6 19 10 23 6 4 13 19 24 14 12 25
6 4 18 30 30 13 14 17 16 24 26 5 8 15 10 23 17 12 16 13 44 27 44 30 12 16 19 10 10 14 23 28 33 18 11 44 46 31 9 13 17 17 14 12 22
18 9 9 5 21 19 17 5 28 20 23 24 9 19 25 20 23 26 23 5 4 26 26 21 20 22 26 8 8 6 22 41 45 54 28 56 43 66 37 24 40 24 23 26 29
18 9 9 12 24 12 24 33 35 25 21 15 30 33 33 22 28 16 24 19 18 7 20 14 9 16 32 28 15 12 18 41 54 53 46 55 45 54 29 43 31 62 57 43 48
30 35 14 13 4 8 8 22 29 11 11 27 25 32 33 39 56 67 40 21 6 12 17 12 12 13 47 27 20 16 66 34 30 43 44 45 68 65 21 21 47 69 59 52 53
Wind_Direction_500mb
187 195 200 201 205 211 221 223 230 238 243 252 261 274 277 277 278 261 238 216 222 213 205 199 185 139 117 86 83 112 67 162 181 156 242 173 141 156 164 151 178 191 190 195 185
191 196 203 212 216 221 232 239 242 249 258 265 273 282 290 293 290 249 238 231 237 220 192 176 157 139 93 82 68 84 105 205 194 193 224 185 176 171 165 162 195 190 192 177 186
203 206 211 212 218 231 238 244 253 258 267 272 278 285 292 302 290 238 232 222 204 189 171 159 147 122 78 66 53 135 167 200 205 188 218 187 216 189 170 227 207 199 186 183 189
215 218 220 224 227 230 237 250 258 266 270 274 278 283 287 285 192 163 127 140 160 168 162 152 149 95 81 83 91 101 223 178 185 190 173 185 193 214 204 229 234 218 202 192 196
226 228 229 231 234 237 241 244 251 263 268 276 280 281 283 254 236 188 170 150 144 143 152 153 151 123 143 172 105 147 260 216 211 222 236 211 224 224 231 233 232 209 202 203 204
235 235 238 238 238 240 243 248 251 252 257 264 272 274 266 248 232 215 209 199 190 181 182 179 158 135 131 147 166 177 227 269 246 237 242 208 242 210 236 225 218 206 204 208 211
239 241 240 242 243 244 243 246 249 251 254 256 259 263 258 251 230 217 212 209 208 206 211 208 194 193 151 98 31 18 319 325 252 240 228 207 284 234 233 213 211 208 211 213 216
243 242 245 243 245 245 247 247 248 249 250 252 255 259 255 237 227 216 199 194 203 211 216 216 214 186 156 129 26 37 52 345 294 158 246 162 271 265 237 211 213 217 217 221 223
244 243 243 245 244 246 247 248 249 247 248 249 252 243 257 234 224 217 215 216 215 217 208 204 178 142 130 88 7 8 240 213 310 203 132 170 263 278 224 212 225 223 225 227 230
246 244 242 242 242 242 245 245 249 249 241 240 240 252 232 223 213 209 206 203 192 188 167 175 136 82 45 116 227 208 223 243 242 211 174 220 263 263 254 228 236 237 233 233 233
243 241 241 240 238 236 234 235 245 241 220 208 211 209 229 197 179 181 185 174 164 166 159 150 124 197 210 200 161 152 198 241 247 244 179 234 241 258 246 233 242 244 240 238 237
241 239 234 234 231 228 222 205 211 228 275 235 237 222 210 185 177 186 177 171 170 168 120 67 225 223 157 174 197 210 241 260 290 234 193 267 258 249 225 232 241 243 244 242 240
242 234 234 228 223 226 224 219 238 242 274 252 226 226 214 204 209 193 184 185 158 145 190 178 206 168 160 160 171 223 208 232 228 323 248 299 265 231 245 235 248 250 253 252 246
248 243 229 224 223 223 225 209 213 172 284 245 215 225 210 201 238 207 196 180 181 194 169 239 246 140 164 193 164 236 209 203 242 328 258 9 293 200 228 240 237 250 248 247 244
239 236 248 217 218 212 221 206 195 158 255 205 162 181 173 176 147 187 189 198 168 173 145 233 169 170 179 196 163 226 138 178 175 203 331 205 283 262 186 248 248 250 253 251 253
233 260 253 233 227 223 216 201 178 161 225 197 146 169 141 168 135 116 176 173 166 140 256 231 217 163 194 133 162 147 88 59 58 55 268 190 185 285 170 213 251 260 260 262 258
248 248 275 251 231 203 189 171 202 199 178 205 183 166 158 157 153 155 165 182 171 151 218 157 211 181 158 100 60 121 101 312 319 349 250 351 219 253 306 281 237 257 270 270 255
261 239 234 247 243 256 209 243 196 187 198 83 110 107 181 150 194 150 138 181 243 130 132 176 267 172 192 184 183 189 159 161 224 216 272 328 241 247 233 262 268 273 275 264 244
312 267 240 227 227 229 204 213 215 173 216 134 67 113 222 207 141 133 189 200 202 184 182 165 262 163 163 115 151 194 205 171 84 82 351 224 289 291 267 274 267 266 267 260 241
294 294 258 244 255 217 230 226 216 213 177 228 178 174 182 188 159 179 171 196 202 195 191 196 255 50 158 102 29 158 161 88 34 230 257 274 267 236 275 268 303 254 239 240 229
277 293 252 204 222 237 248 206 227 232 195 208 237 165 183 179 179 196 203 240 201 191 196 144 153 338 126 205 171 142 178 181 140 156 195 301 258 216 232 267 287 293 283 247 228
237 242 217 186 192 195 199 201 196 211 217 239 165 239 196 179 193 200 203 238 180 141 166 199 122 172 205 270 209 92 190 170 165 222 240 151 264 180 228 271 296 305 304 253 235
240 248 216 197 224 202 201 220 244 223 198 177 235 183 257 204 201 212 199 217 168 156 161 166 181 164 226 40 328 210 206 201 118 90 218 176 255 23 290 289 279 285 299 239 222
252 276 229 219 249 228 207 232 223 229 261 236 239 194 183 244 209 202 217 203 193 190 178 153 167 195 224 178 139 186 196 199 199 213 163 231 262 256 313 300 294 278 299 265 232
205 239 232 224 247 251 268 244 223 231 213 223 251 235 214 228 233 232 232 149 189 226 172 172 207 203 232 156 149 222 204 205 207 218 204 249 234 256 241 242 251 265 254 251 240
194 201 218 268 297 244 234 242 249 240 227 217 230 237 244 243 219 233 215 194 202 194 201 187 230 172 249 223 193 225 227 218 215 223 227 246 251 257 206 240 250 256 263 248 246
233 221 224 242 226 229 226 242 254 237 236 273 250 235 237 241 248 257 259 241 224 204 199 192 187 193 249 222 210 230 237 214 224 227 220 233 240 261 229 224 242 252 253 255 258
Wind_Speed_850mb
16 14 13 13 13 13 13 12 11 10 9 9 8 8 8 9 10 11 9 9 9 9 7 7 7 6 7 9 7 6 9 5 12 13 9 15 7 9 12 23 16 20 13 16 49
20 18 16 13 13 12 12 12 11 11 10 9 9 9 10 10 11 10 9 13 13 11 10 8 9 7 6 5 4 8 8 16 10 9 8 13 10 21 13 16 11 18 23 37 52
21 20 18 17 15 13 13 12 12 12 12 11 10 11 10 10 7 5 5 7 10 12 12 9 9 7 5 3 3 6 9 9 6 5 9 13 8 17 15 8 25 36 40 51 54
24 23 21 19 17 16 14 14 13 13 12 12 12 12 11 8 6 7 6 6 10 12 15 14 6 4 5 2 2 3 3 5 4 6 9 10 7 10 26 18 18 26 38 52 56
28 27 26 24 22 20 18 16 15 15 14 13 13 12 11 9 9 13 7 7 11 15 16 8 6 5 7 2 1 2 3 4 5 11 12 10 16 19 25 36 24 29 43 48 53
33 32 30 28 27 24 22 20 19 17 16 15 14 13 11 10 12 17 14 12 11 13 10 7 3 4 6 4 4 3 3 7 10 15 12 10 11 11 19 34 33 35 46 50 52
38 37 35 33 31 29 27 24 23 21 19 17 16 15 19 22 15 19 18 16 15 14 11 9 6 3 4 3 0 1 7 12 17 13 11 14 15 22 34 34 42 45 46 50 51
42 41 40 37 35 33 31 28 26 24 22 20 18 16 15 19 25 27 21 17 14 12 12 10 8 4 4 6 8 5 9 5 7 12 6 15 22 11 27 43 50 52 53 54 55
43 43 42 41 37 35 32 31 30 26 24 21 17 15 14 18 32 30 27 23 20 17 14 10 9 6 7 9 8 10 6 9 16 19 5 8 17 5 12 38 51 57 60 60 58
42 44 43 42 39 35 34 31 29 26 23 17 21 9 24 14 19 28 28 23 17 19 13 11 6 7 6 7 11 11 8 8 12 5 6 10 27 18 20 31 52 55 62 64 65
43 42 42 41 40 36 32 23 17 14 33 22 12 10 4 22 23 22 30 28 20 16 11 7 7 14 26 16 7 8 8 11 8 6 8 17 21 35 37 39 48 57 62 73 78
49 45 41 39 36 38 37 26 16 5 13 41 42 39 17 29 19 27 37 22 16 9 14 7 14 27 8 10 10 6 7 13 12 10 12 21 29 24 21 30 58 77 82 86 82
50 55 50 42 38 44 45 43 16 11 9 15 46 59 41 38 20 45 50 21 9 13 19 17 11 15 17 9 11 12 13 10 16 9 9 13 20 18 19 46 72 78 93 90 95
38 48 59 51 52 58 55 35 19 8 6 12 17 25 46 30 14 33 57 22 9 22 13 13 8 11 11 11 17 12 16 12 11 1 10 4 26 13 15 25 18 72 80 85 84
31 48 57 68 46 63 58 38 29 14 9 8 11 16 32 33 26 21 59 24 17 16 14 16 15 13 10 13 16 14 9 11 2 6 7 3 9 1 7 13 27 50 66 68 71
21 13 16 73 59 62 57 49 44 9 25 9 15 17 15 9 9 13 25 11 11 10 5 9 2 14 17 6 13 15 10 10 8 3 12 21 16 53 12 16 13 32 40 47 53
40 46 40 28 23 29 61 73 11 17 3 13 12 14 8 13 9 11 14 20 17 13 17 5 10 5 9 11 5 6 13 4 7 2 16 6 11 38 18 18 18 22 37 32 36
19 23 34 52 48 33 48 9 13 11 15 6 9 10 15 12 8 11 15 15 12 7 7 16 9 23 14 19 16 15 16 12 14 9 10 4 16 13 17 37 50 47 44 31 35
14 16 27 49 49 56 35 23 11 11 6 15 8 9 8 7 10 8 15 12 18 19 18 13 12 3 4 5 19 11 14 9 7 3 3 10 16 16 18 24 47 24 26 27 32
22 23 34 40 42 39 20 4 12 11 6 5 17 13 22 16 13 15 19 12 13 29 11 10 3 1 4 8 7 13 14 5 2 4 11 10 12 16 15 24 18 12 30 33 29
23 13 5 15 41 23 9 12 12 21 9 8 11 13 11 16 19 14 14 6 13 15 42 10 8 2 8 12 20 7 8 5 8 10 9 6 14 15 12 9 17 18 25 34 36
10 5 7 25 13 5 6 10 14 11 29 13 2 17 23 15 15 17 22 11 30 24 19 10 9 8 15 5 6 2 15 16 8 11 8 4 33 8 14 8 14 25 19 21 33
8 11 11 32 10 16 8 12 9 7 16 16 22 13 6 26 15 24 13 21 45 21 22 18 8 5 4 2 6 13 14 30 10 6 19 10 23 6 4 13 19 24 14 12 25
6 4 18 30 30 13 14 17 16 24 26 5 8 15 10 23 17 12 16 13 44 27 44 30 12 16 19 10 10 14 23 28 33 18 11 44 46 31 9 13 17 17 14 12 22
18 9 9 5 21 19 17 5 28 20 23 24 9 19 25 20 23 26 23 5 4 26 26 21 20 22 26 8 8 6 22 41 45 54 28 56 43 66 37 24 40 24 23 26 29
18 9 9 12 24 12 24 33 35 25 21 15 30 33 33 22 28 16 24 19 18 7 20 14 9 16 32 28 15 12 18 41 54 53 46 55 45 54 29 43 31 62 57 43 48
30 35 14 13 4 8 8 22 29 11 11 27 25 32 33 39 56 67 40 21 6 12 17 12 12 13 47 27 20 16 66 34 30 43 44 45 68 65 21 21 47 69 59 52 53
Wind_Direction_850mb
187 195 200 201 205 211 221 223 230 238 243 252 261 274 277 277 278 261 238 216 222 213 205 199 185 139 117 86 83 112 67 162 181 156 242 173 141 156 164 151 178 191 190 195 185
191 196 203 212 216 221 232 239 242 249 258 265 273 282 290 293 290 249 238 231 237 220 192 176 157 139 93 82 68 84 105 205 194 193 224 185 176 171 165 162 195 190 192 177 186
203 206 211 212 218 231 238 244 253 258 267 272 278 285 292 302 290 238 232 222 204 189 171 159 147 122 78 66 53 135 167 200 205 188 218 187 216 189 170 227 207 199 186 183 189
215 218 220 224 227 230 237 250 258 266 270 274 278 283 287 285 192 163 127 140 160 168 162 152 149 95 81 83 91 101 223 178 185 190 173 185 193 214 204 229 234 218 202 192 196
226 228 229 231 234 237 241 244 251 263 268 276 280 281 283 254 236 188 170 150 144 143 152 153 151 123 143 172 105 147 260 216 211 222 236 211 224 224 231 233 232 209 202 203 204
235 235 238 238 238 240 243 248 251 252 257 264 272 274 266 248 232 215 209 199 190 181 182 179 158 135 131 147 166 177 227 269 246 237 242 208 242 210 236 225 218 206 204 208 211
239 241 240 242 243 244 243 246 249 251 254 256 259 263 258 251 230 217 212 209 208 206 211 208 194 193 151 98 31 18 319 325 252 240 228 207 284 234 233 213 211 208 211 213 216
243 242 245 243 245 245 247 247 248 249 250 252 255 259 255 237 227 216 199 194 203 211 216 216 214 186 156 129 26 37 52 345 294 158 246 162 271 265 237 211 213 217 217 221 223
244 243 243 245 244 246 247 248 249 247 248 249 252 243 257 234 224 217 215 216 215 217 208 204 178 142 130 88 7 8 240 213 310 203 132 170 263 278 224 212 225 223 225 227 230
246 244 242 242 242 242 245 245 249 249 241 240 240 252 232 223 213 209 206 203 192 188 167 175 136 82 45 116 227 208 223 243 242 211 174 220 263 263 254 228 236 237 233 233 233
243 241 241 240 238 236 234 235 245 241 220 208 211 209 229 197 179 181 185 174 164 166 159 150 124 197 210 200 161 152 198 241 247 244 179 234 241 258 246 233 242 244 240 238 237
241 239 234 234 231 228 222 205 211 228 275 235 237 222 210 185 177 186 177 171 170 168 120 67 225 223 157 174 197 210 241 260 290 234 193 267 258 249 225 232 241 243 244 242 240
242 234 234 228 223 226 224 219 238 242 274 252 226 226 214 204 209 193 184 185 158 145 190 178 206 168 160 160 171 223 208 232 228 323 248 299 265 231 245 235 248 250 253 252 246
248 243 229 224 223 223 225 209 213 172 284 245 215 225 210 201 238 207 196 180 181 194 169 239 246 140 164 193 164 236 209 203 242 328 258 9 293 200 228 240 237 250 248 247 244
239 236 248 217 218 212 221 206 195 158 255 205 162 181 173 176 147 187 189 198 168 173 145 233 169 170 179 196 163 226 138 178 175 203 331 205 283 262 186 248 248 250 253 251 253
233 260 253 233 227 223 216 201 178 161 225 197 146 169 141 168 135 116 176 173 166 140 256 231 217 163 194 133 162 147 88 59 58 55 268 190 185 285 170 213 251 260 260 262 258
248 248 275 251 231 203 189 171 202 199 178 205 183 166 158 157 153 155 165 182 171 151 218 157 211 181 158 100 60 121 101 312 319 349 250 351 219 253 306 281 237 257 270 270 255
261 239 234 247 243 256 209 243 196 187 198 83 110 107 181 150 194 150 138 181 243 130 132 176 267 172 192 184 183 189 159 161 224 216 272 328 241 247 233 262 268 273 275 264 244
312 267 240 227 227 229 204 213 215 173 216 134 67 113 222 207 141 133 189 200 202 184 182 165 262 163 163 115 151 194 205 171 84 82 351 224 289 291 267 274 267 266 267 260 241
294 294 258 244 255 217 230 226 216 213 177 228 178 174 182 188 159 179 171 196 202 195 191 196 255 50 158 102 29 158 161 88 34 230 257 274 267 236 275 268 303 254 239 240 229
277 293 252 204 222 237 248 206 227 232 195 208 237 165 183 179 179 196 203 240 201 191 196 144 153 338 126 205 171 142 178 181 140 156 195 301 258 216 232 267 287 293 283 247 228
237 242 217 186 192 195 199 201 196 211 217 239 165 239 196 179 193 200 203 238 180 141 166 199 122 172 205 270 209 92 190 170 165 222 240 151 264 180 228 271 296 305 304 253 235
240 248 216 197 224 202 201 220 244 223 198 177 235 183 257 204 201 212 199 217 168 156 161 166 181 164 226 40 328 210 206 201 118 90 218 176 255 23 290 289 279 285 299 239 222
252 276 229 219 249 228 207 232 223 229 261 236 239 194 183 244 209 202 217 203 193 190 178 153 167 195 224 178 139 186 196 199 199 213 163 231 262 256 313 300 294 278 299 265 232
205 239 232 224 247 251 268 244 223 231 213 223 251 235 214 228 233 232 232 149 189 226 172 172 207 203 232 156 149 222 204 205 207 218 204 249 234 256 241 242 251 265 254 251 240
194 201 218 268 297 244 234 242 249 240 227 217 230 237 244 243 219 233 215 194 202 194 201 187 230 172 249 223 193 225 227 218 215 223 227 246 251 257 206 240 250 256 263 248 246
233 221 224 242 226 229 226 242 254 237 236 273 250 235 237 241 248 257 259 241 224 204 199 192 187 193 249 222 210 230 237 214 224 227 220 233 240 261 229 224 242 252 253 255 258